Location: Newark
(51.2625°N, 13.3939°E)
Time: 23:29:44
(UTC+00:00)

Explorer 7 - Visible Passes

Search period start: 15 November 2019 00:00
Search period end: 25 November 2019 00:00
Orbit: 485 x 680 km, 50.3° (Epoch: 14 November)

Date Brightness Start Highest point End Pass type
(mag) Time Alt. Az. Time Alt. Az. Time Alt. Az.
15 Nov 6.8 03:53:27 77° SSE 03:53:27 77° SSE 03:57:16 10° E visible
15 Nov 7.4 05:29:47 10° W 05:33:37 44° SSW 05:37:18 10° SE visible
16 Nov 6.7 03:58:18 74° S 03:58:18 74° S 04:02:12 10° ESE visible
16 Nov 7.8 05:34:46 10° W 05:38:27 33° SSW 05:41:57 10° SE visible
17 Nov 10.1 02:26:50 10° E 02:26:50 10° E 02:26:50 10° E visible
17 Nov 6.8 04:03:09 65° SSW 04:03:11 65° SSW 04:07:07 10° ESE visible
17 Nov 8.2 05:39:54 10° W 05:43:14 25° SW 05:46:24 10° SSE visible
18 Nov 10.1 02:31:42 10° E 02:31:42 10° E 02:31:48 10° E visible
18 Nov 7.0 04:08:02 53° SSW 04:08:06 53° SSW 04:11:57 10° ESE visible
18 Nov 8.6 05:45:14 10° W 05:47:57 18° SW 05:50:35 10° S visible
19 Nov 10.0 02:36:37 11° E 02:36:37 11° E 02:36:45 10° E visible
19 Nov 7.4 04:12:58 41° SSW 04:12:58 41° SSW 04:16:42 10° SE visible
19 Nov 9.0 05:51:05 10° WSW 05:52:36 12° SW 05:54:06 10° SSW visible
20 Nov 10.0 02:41:35 11° ESE 02:41:35 11° ESE 02:41:40 10° ESE visible
20 Nov 7.8 04:17:55 31° SSW 04:17:55 31° SSW 04:21:18 10° SSE visible
21 Nov 8.3 04:22:57 22° SSW 04:22:57 22° SSW 04:25:41 10° SSE visible
22 Nov 8.8 04:28:02 15° SSW 04:28:02 15° SSW 04:29:44 10° S visible
